Weather observations for the past three days for
Owatonna Degner Regional Airport
Imperial (Metric)
Date Time (cdt) Wind (mph) Vis. (mi.) Weather Sky Cond. Temperature (ºF) Relative Humidity Wind Chill (°F) Heat Index (°F) Pressure Precipitation (in)
Air Dwpt 6 hour altimeter (in) sea level (mb) 1 hr 3 hr 6 hr
Max. Min.
13 13:53 N 12 10.00 Fair CLR 77 60.8 57% 79 29.85 0.0
13 13:33 NW 9 10.00 Fair CLR 75.2 60.8 61% 77 29.86 0.0
13 13:13 NW 10 10.00 Fair CLR 75.2 60.8 61% 77 29.87 0.0
13 12:53 NW 12 10.00 Partly Cloudy SCT100 73.4 60.8 65% 29.87 0.0
13 12:33 N 10 10.00 Light Rain SCT028 SCT045 BKN090 66.2 57.2 73% 29.87 0.0
13 12:13 NW 28 G 39 10.00 Light Rain and Windy SCT033 SCT090 SCT110 69.8 55.4 60% 29.9 0.0
13 11:53 NW 21 G 30 10.00 Light Drizzle and Breezy SCT026 SCT034 SCT050 68 57.2 69% 29.87 0.0
13 11:33 N 17 G 23 10.00 Light Rain SCT026 BKN036 OVC060 64.4 57.2 78% 29.89 0.0
13 11:13 NW 15 10.00 Light Rain SCT027 BKN055 OVC080 66.2 57.2 73% 29.91 0.0
13 10:53 NW 15 G 24 10.00 Light Rain SCT031 BKN065 OVC110 66.2 57.2 73% 29.9 0.0
13 10:13 NW 28 G 35 10.00 Rain and Windy SCT026 SCT040 BKN065 68 57.2 69% 29.86 0.0
13 09:53 NW 20 G 29 10.00 Light Rain SCT030 SCT046 BKN070 68 57.2 69% 29.87 0.0
13 09:33 NW 22 G 31 10.00 Light Rain and Breezy SCT039 SCT070 SCT100 69.8 57.2 64% 29.87 0.0
13 09:13 NW 12 10.00 Partly Cloudy SCT095 69.8 60.8 73% 29.89 0.0
13 08:53 NW 10 10.00 Light Rain SCT095 69.8 62.6 78% 29.87 0.0
13 08:33 NW 13 G 18 10.00 Fair CLR 69.8 62.6 78% 29.85 0.0
13 08:13 W 3 10.00 Fair CLR 68 64.4 88% 29.83 0.0
13 07:53 Calm 10.00 Fair CLR 68 64.4 88% 29.81 0.0
13 07:33 W 3 10.00 Partly Cloudy SCT095 69.8 64.4 83% 29.8 0.0
13 07:13 SW 3 10.00 Fair CLR 68 62.6 83% 29.79 0.0
13 06:53 SW 5 10.00 Fair CLR 66.2 62.6 88% 29.78 0.0
13 06:33 Calm 10.00 Fair CLR 64.4 60.8 88% 29.77 0.0
13 06:13 Calm 10.00 Fair CLR 62.6 60.8 94% 29.77 0.0
13 05:53 SW 3 10.00 Fair CLR 64.4 62.6 94% 29.75 0.0
13 05:33 Calm 10.00 Fair CLR 62.6 60.8 94% 29.74 0.0
13 05:13 Calm 10.00 Fair CLR 62.6 60.8 94% 29.74 0.0
13 04:53 Calm 10.00 Fair CLR 64.4 60.8 88% 29.73 0.0
13 04:33 Calm 10.00 Fair CLR 64.4 60.8 88% 29.73 0.0
13 04:13 Calm 10.00 Fair CLR 64.4 62.6 94% 29.73 0.0
13 03:53 Calm 10.00 Fair CLR 64.4 62.6 94% 29.72 0.0
13 03:33 SE 6 10.00 Fair CLR 66.2 62.6 88% 29.71 0.0
13 03:13 SE 7 10.00 Fair CLR 66.2 62.6 88% 29.73 0.0
13 02:53 SE 3 10.00 Fair CLR 68 62.6 83% 29.74 0.0
13 02:33 Calm 10.00 Fair CLR 69.8 62.6 78% 29.74 0.0
13 02:13 N 5 10.00 Fair CLR 71.6 62.6 73% 29.75 0.0
13 01:53 N 8 G 21 10.00 Fair CLR 69.8 62.6 78% 29.75 0.0
13 01:33 S 7 10.00 Fair CLR 71.6 62.6 73% 29.72 0.0
13 01:13 S 6 10.00 Fair CLR 71.6 62.6 73% 29.72 0.0
13 00:53 S 5 10.00 Partly Cloudy SCT075 73.4 62.6 69% 29.72 0.0
13 00:33 S 5 10.00 Partly Cloudy SCT075 71.6 64.4 78% 29.71 0.0
13 00:13 S 6 10.00 Fair CLR 71.6 64.4 78% 29.71 0.0
12 23:53 S 8 10.00 Fair CLR 71.6 64.4 78% 29.71 0.0
12 23:33 S 9 10.00 Partly Cloudy SCT075 71.6 64.4 78% 29.72 0.0
12 23:13 S 13 10.00 Partly Cloudy SCT075 71.6 64.4 78% 29.71 0.0
12 22:53 S 10 10.00 Partly Cloudy SCT075 71.6 64.4 78% 29.73 0.0
12 22:33 S 12 10.00 Partly Cloudy SCT075 71.6 66.2 83% 29.73 0.0
12 22:13 S 10 10.00 Fair CLR 71.6 66.2 83% 29.73 0.0
12 21:53 SE 8 10.00 Fair CLR 71.6 66.2 83% 29.73 0.0
12 21:33 SE 8 10.00 Fair CLR 71.6 66.2 83% 29.72 0.0
12 21:13 S 9 10.00 Fair CLR 73.4 66.2 78% 29.71 0.0
12 20:53 S 10 10.00 Fair CLR 73.4 66.2 78% 29.71 0.0
12 20:33 S 10 10.00 Fair CLR 73.4 66.2 78% 29.71 0.0
12 20:13 S 7 10.00 Fair CLR 75.2 66.2 74% 77 29.72 0.0
12 19:53 S 9 10.00 Fair CLR 75.2 66.2 74% 77 29.72 0.0
12 19:33 S 12 10.00 Fair CLR 75.2 66.2 74% 77 29.72 0.0
12 19:13 S 15 G 22 10.00 Fair CLR 77 66.2 69% 79 29.71 0.0
12 18:53 S 18 G 22 10.00 Fair CLR 77 66.2 69% 79 29.72 0.0
12 18:33 S 17 G 24 10.00 Fair CLR 77 66.2 69% 79 29.73 0.0
12 18:13 S 21 G 25 10.00 Fair and Breezy CLR 77 66.2 69% 79 29.74 0.0
12 17:53 S 16 G 26 10.00 Fair CLR 75.2 66.2 74% 77 29.75 0.0
12 17:33 S 13 G 25 10.00 Fair CLR 75.2 66.2 74% 77 29.75 0.0
12 17:13 S 15 G 23 10.00 Fair CLR 75.2 64.4 69% 77 29.76 0.0
12 16:53 S 15 G 20 10.00 Fair CLR 75.2 64.4 69% 77 29.77 0.0
12 16:33 SE 13 10.00 Fair CLR 75.2 66.2 74% 77 29.77 0.0
12 16:13 SE 18 10.00 Fair CLR 75.2 64.4 69% 77 29.78 0.0
12 15:53 SE 14 G 18 10.00 Partly Cloudy SCT085 73.4 64.4 74% 29.78 0.0
12 15:33 SE 16 G 23 10.00 Thunderstorm in Vicinity SCT110 73.4 66.2 78% 29.79 0.0
12 15:13 SE 20 G 23 10.00 Fair CLR 71.6 64.4 78% 29.8 0.0
12 14:53 SE 14 10.00 Fair CLR 69.8 64.4 83% 29.81 0.0
12 14:33 SE 16 10.00 Partly Cloudy SCT055 66.2 62.6 88% 29.82 0.0
12 14:13 SE 18 G 23 10.00 Light Rain SCT008 SCT055 SCT065 66.2 62.6 88% 29.84 0.0
12 13:53 E 16 5.00 Thunderstorm Light Rain in Vicinity BKN008 BKN023 BKN065 64.4 62.6 94% 29.86 0.0
12 13:33 W 3 5.00 Overcast SCT015 BKN023 OVC095 66.2 62.6 88% 29.91 0.0 0.02
12 13:13 SE 13 10.00 Thunderstorm Light Rain SCT011 BKN021 OVC085 64.4 62.6 94% 29.84 0.0
12 12:33 NE 9 10.00 Thunderstorm Heavy Rain in Vicinity SCT008 BKN016 OVC060 64.4 62.6 94% 29.86 0.0 0.01
12 12:13 NE 13 G 20 7.00 Overcast SCT016 BKN050 OVC110 64.4 62.6 94% 29.86 0.0 0.01
12 11:53 NE 10 10.00 Thunderstorm Light Rain in Vicinity SCT015 SCT030 BKN055 64.4 62.6 94% 29.83 0.0
12 11:33 N 14 G 33 4.00 Overcast SCT011 BKN055 OVC070 64.4 60.8 88% 29.86 0.0 0.02
12 11:13 N 17 G 25 10.00 Light Rain SCT049 SCT065 BKN075 69.8 59 69% 29.85 0.0
12 10:53 SE 9 10.00 Thunderstorm in Vicinity SCT100 73.4 55.4 53% 29.78 0.0
12 10:33 SE 9 10.00 Fair CLR 73.4 55.4 53% 29.8 0.0
12 10:13 SE 9 10.00 Fair CLR 73.4 55.4 53% 29.8 0.0
12 09:53 S 13 G 16 10.00 Fair CLR 73.4 55.4 53% 29.8 0.0
12 09:33 S 12 10.00 Fair CLR 73.4 53.6 50% 29.8 0.0
12 09:13 SE 12 10.00 Partly Cloudy SCT110 73.4 53.6 50% 29.8 0.0
12 08:53 S 12 10.00 Fair CLR 73.4 53.6 50% 29.81 0.0
12 08:33 S 14 10.00 Partly Cloudy SCT095 73.4 53.6 50% 29.82 0.0
12 08:13 SE 15 10.00 Fair CLR 73.4 53.6 50% 29.81 0.0
12 07:53 SE 10 10.00 Partly Cloudy SCT120 71.6 53.6 53% 29.83 0.0
12 07:33 SE 9 10.00 Partly Cloudy SCT120 69.8 53.6 57% 29.83 0.0
12 07:13 SE 9 10.00 Partly Cloudy SCT110 66.2 53.6 64% 29.82 0.0
12 06:53 SE 10 10.00 Partly Cloudy SCT110 64.4 53.6 68% 29.83 0.0
12 06:33 SE 8 10.00 Fair CLR 62.6 53.6 73% 29.83 0.0
12 06:13 SE 6 10.00 Mostly Cloudy BKN110 60.8 53.6 77% 29.83 0.0
12 05:53 SE 6 10.00 Mostly Cloudy BKN110 59 53.6 82% 29.84 0.0
12 05:33 SE 5 10.00 Partly Cloudy SCT120 57.2 51.8 82% 29.85 0.0
12 05:13 SE 3 10.00 Fair CLR 59 51.8 77% 29.86 0.0
12 04:53 SE 3 10.00 Fair CLR 59 51.8 77% 29.86 0.0
12 04:33 S 7 10.00 Fair CLR 57.2 51.8 82% 29.86 0.0
12 04:13 Calm 10.00 Fair CLR 57.2 51.8 82% 29.86 0.0
12 03:53 SE 5 10.00 Fair CLR 57.2 53.6 88% 29.86 0.0
12 03:33 Calm 10.00 Fair CLR 59 53.6 82% 29.87 0.0
12 03:13 Calm 10.00 Fair CLR 57.2 51.8 82% 29.86 0.0
12 02:53 Calm 10.00 Fair CLR 60.8 51.8 72% 29.86 0.0
12 02:33 Calm 10.00 Fair CLR 60.8 51.8 72% 29.86 0.0
12 02:13 Calm 10.00 Fair CLR 60.8 53.6 77% 29.85 0.0
12 01:53 Calm 10.00 Fair CLR 62.6 51.8 68% 29.85 0.0
12 01:33 SW 3 10.00 Fair CLR 62.6 53.6 73% 29.86 0.0
12 01:13 SW 5 10.00 Fair CLR 64.4 53.6 68% 29.85 0.0
12 00:53 SW 3 10.00 Fair CLR 66.2 53.6 64% 29.85 0.0
12 00:33 SW 5 10.00 Fair CLR 64.4 53.6 68% 29.85 0.0
12 00:13 S 3 10.00 Fair CLR 66.2 53.6 64% 29.85 0.0
11 23:53 Calm 10.00 Fair CLR 62.6 53.6 73% 29.84 0.0
11 23:33 Calm 10.00 Fair CLR 62.6 55.4 77% 29.84 0.0
11 23:13 Calm 10.00 Fair CLR 66.2 53.6 64% 29.84 0.0
11 22:53 Calm 10.00 Fair CLR 66.2 53.6 64% 29.84 0.0
11 22:33 Calm 10.00 Fair CLR 68 53.6 60% 29.84 0.0
11 22:13 SW 5 10.00 Fair CLR 66.2 53.6 64% 29.84 0.0
11 21:53 SW 3 10.00 Fair CLR 69.8 51.8 53% 29.83 0.0
11 21:33 SW 3 10.00 Fair CLR 69.8 51.8 53% 29.83 0.0
11 21:13 W 5 10.00 Fair CLR 71.6 51.8 50% 29.82 0.0
11 20:53 W 5 10.00 Fair CLR 73.4 51.8 47% 29.82 0.0
11 20:33 W 7 10.00 Fair CLR 77 51.8 42% 78 29.82 0.0
11 20:13 W 8 10.00 Fair CLR 78.8 50 37% 79 29.81 0.0
11 19:53 W 10 10.00 Fair CLR 80.6 50 34% 80 29.81 0.0
11 19:33 W 14 G 18 10.00 Fair CLR 80.6 48.2 32% 80 29.81 0.0
11 19:13 W 14 G 21 10.00 Fair CLR 82.4 50 32% 81 29.81 0.0
11 18:53 NW 14 G 22 10.00 Fair CLR 82.4 48.2 30% 81 29.8 0.0
11 18:33 W 16 G 26 10.00 Fair CLR 82.4 48.2 30% 81 29.8 0.0
11 18:15 NW 18 G 28 10.00 Fair CLR 82.4 0 0% 29.8 0.0
11 17:53 W 21 G 28 10.00 Fair and Breezy CLR 84.2 48.2 29% 82 29.8 0.0
11 17:33 NW 21 G 24 10.00 Fair and Breezy CLR 84.2 50 31% 82 29.8 0.0
11 17:13 W 13 G 20 10.00 Partly Cloudy SCT080 SCT095 82.4 51.8 35% 81 29.8 0.0
11 16:53 W 21 G 25 10.00 Partly Cloudy and Breezy SCT080 84.2 51.8 33% 82 29.79 0.0
11 16:33 W 14 G 28 10.00 Fair CLR 84.2 53.6 35% 83 29.8 0.0
11 16:13 W 15 10.00 Partly Cloudy SCT070 84.2 53.6 35% 83 29.8 0.0
11 15:53 W 14 10.00 Partly Cloudy SCT070 82.4 55.4 40% 82 29.8 0.0
11 15:33 W 14 G 21 10.00 Partly Cloudy SCT060 82.4 55.4 40% 82 29.8 0.0
11 15:13 W 16 G 23 10.00 Partly Cloudy SCT060 82.4 55.4 40% 82 29.81 0.0
11 14:53 SW 15 G 21 10.00 Partly Cloudy SCT060 82.4 55.4 40% 82 29.8 0.0
11 14:33 W 10 G 21 10.00 Partly Cloudy SCT060 82.4 57.2 42% 82 29.81 0.0
11 14:13 W 16 G 23 10.00 Partly Cloudy SCT070 82.4 55.4 40% 82 29.81 0.0
11 13:53 W 13 G 24 10.00 Partly Cloudy SCT060 80.6 55.4 42% 81 29.81 0.0
11 13:33 W 15 G 20 10.00 Fair CLR 80.6 57.2 45% 81 29.81 0.0
11 13:13 SW 12 10.00 Fair CLR 78.8 57.2 48% 80 29.82 0.0
11 12:53 SW 14 G 22 10.00 Fair CLR 78.8 57.2 48% 80 29.82 0.0
11 12:33 SW 16 G 22 10.00 Fair CLR 75.2 57.2 54% 78 29.83 0.0
11 12:13 SW 15 G 24 10.00 Partly Cloudy SCT037 73.4 57.2 57% 29.83 0.0
11 11:33 S 17 G 23 10.00 Partly Cloudy SCT049 SCT095 69.8 55.4 60% 29.84 0.0
11 11:13 S 18 G 23 10.00 Partly Cloudy SCT046 SCT060 SCT075 69.8 53.6 57% 29.84 0.0
11 10:53 S 20 G 28 10.00 Partly Cloudy SCT044 69.8 53.6 57% 29.85 0.0
11 10:33 S 16 G 25 10.00 Partly Cloudy SCT080 68 53.6 60% 29.86 0.0
11 10:13 S 21 G 28 10.00 Partly Cloudy and Breezy SCT070 SCT090 64.4 51.8 64% 29.86 0.0
11 09:53 S 18 G 23 10.00 Mostly Cloudy BKN090 62.6 51.8 68% 29.86 0.0
11 09:33 S 18 G 24 10.00 Mostly Cloudy BKN080 BKN110 62.6 50 64% 29.86 0.0
11 09:13 S 20 G 30 10.00 Overcast BKN070 OVC090 60.8 48.2 63% 29.86 0.0
11 08:53 S 18 G 28 10.00 Overcast BKN070 OVC090 60.8 48.2 63% 29.86 0.0
11 08:33 S 15 G 23 10.00 Overcast OVC080 59 48.2 68% 29.87 0.0
11 08:13 SE 14 G 18 10.00 Overcast BKN065 OVC080 57.2 48.2 72% 29.88 0.0
11 07:53 SE 12 10.00 Light Rain SCT033 BKN065 OVC080 57.2 48.2 72% 29.89 0.0
11 07:33 S 9 7.00 Light Rain SCT035 SCT050 OVC080 57.2 48.2 72% 29.9 0.0
11 07:13 S 8 10.00 Drizzle SCT075 OVC090 59 46.4 63% 29.9 0.0
11 06:53 S 9 10.00 Light Rain SCT031 SCT050 OVC100 59 46.4 63% 29.91 0.0
11 06:33 S 9 10.00 Light Rain SCT033 BKN085 OVC110 60.8 46.4 59% 29.91 0.0
11 06:13 S 10 10.00 Mostly Cloudy SCT085 BKN110 60.8 44.6 55% 29.91 0.0
11 05:53 S 8 10.00 Fair CLR 60.8 44.6 55% 29.91 0.0
11 05:33 S 8 10.00 Fair CLR 60.8 44.6 55% 29.92 0.0
11 05:13 S 9 10.00 Fair CLR 60.8 44.6 55% 29.92 0.0
11 04:53 S 9 10.00 Fair CLR 60.8 44.6 55% 29.91 0.0
11 04:33 S 9 10.00 Fair CLR 60.8 44.6 55% 29.92 0.0
11 04:13 SE 8 10.00 Fair CLR 60.8 44.6 55% 29.9 0.0
11 03:53 SE 8 10.00 Fair CLR 59 44.6 59% 29.91 0.0
11 03:33 SE 8 10.00 Fair CLR 59 44.6 59% 29.92 0.0
11 03:13 SE 7 10.00 Fair CLR 59 44.6 59% 29.92 0.0
11 02:53 SE 7 10.00 Fair CLR 57.2 44.6 63% 29.92 0.0
11 02:33 SE 8 10.00 Fair CLR 59 44.6 59% 29.93 0.0
11 02:13 SE 8 10.00 Fair CLR 59 44.6 59% 29.94 0.0
11 01:53 SE 7 10.00 Fair CLR 59 46.4 63% 29.95 0.0
11 01:33 SE 6 10.00 Fair CLR 59 46.4 63% 29.96 0.0
11 01:13 SE 7 10.00 Fair CLR 59 46.4 63% 29.96 0.0
11 00:53 SE 8 10.00 Fair CLR 59 46.4 63% 29.96 0.0
11 00:33 SE 6 10.00 Fair CLR 59 46.4 63% 29.97 0.0
11 00:13 SE 6 10.00 Fair CLR 57.2 46.4 67% 29.98 0.0
10 23:53 SE 6 10.00 Fair CLR 59 46.4 63% 29.98 0.0
10 23:33 SE 6 10.00 Fair CLR 60.8 46.4 59% 29.98 0.0
10 23:13 SE 5 10.00 Fair CLR 60.8 46.4 59% 29.99 0.0
10 22:53 SE 5 10.00 Fair CLR 59 46.4 63% 29.98 0.0
10 22:33 SE 5 10.00 Fair CLR 60.8 46.4 59% 29.98 0.0
10 22:13 SE 5 10.00 Fair CLR 62.6 46.4 56% 29.98 0.0
10 21:53 E 5 10.00 Fair CLR 62.6 46.4 56% 29.98 0.0
10 21:33 SE 3 10.00 Fair CLR 62.6 46.4 56% 29.97 0.0
10 21:13 E 6 10.00 Fair CLR 64.4 46.4 52% 29.96 0.0
10 20:53 E 3 10.00 Fair CLR 66.2 44.6 46% 29.96 0.0
10 20:33 SE 5 10.00 Fair CLR 68 46.4 46% 29.95 0.0
10 20:13 SE 5 10.00 Fair CLR 69.8 42.8 38% 29.95 0.0
10 19:53 S 5 10.00 Fair CLR 71.6 42.8 36% 29.96 0.0
10 19:33 SE 3 5.00 Fair with Haze CLR 71.6 42.8 36% 29.96 0.0
10 19:13 Calm 10.00 Fair CLR 71.6 41 33% 29.96 0.0
10 18:53 E 5 10.00 Partly Cloudy SCT090 73.4 44.6 36% 29.96 0.0
10 18:33 E 5 10.00 Fair CLR 73.4 44.6 36% 29.96 0.0
10 18:13 E 6 10.00 Fair CLR 73.4 42.8 33% 29.97 0.0
10 17:53 E 3 10.00 Fair CLR 71.6 42.8 36% 29.98 0.0
10 17:33 E 3 10.00 Fair CLR 71.6 42.8 36% 29.99 0.0
10 17:13 Calm 10.00 Fair CLR 71.6 42.8 36% 29.99 0.0
10 16:53 Calm 10.00 Fair CLR 73.4 42.8 33% 30 0.0
10 16:33 Calm 10.00 Fair CLR 73.4 42.8 33% 30.01 0.0
10 16:13 Calm 10.00 Fair CLR 71.6 42.8 36% 30.01 0.0
10 15:53 Calm 10.00 Fair CLR 71.6 42.8 36% 30.01 0.0
10 15:33 E 8 10.00 Fair CLR 71.6 44.6 38% 30.02 0.0
10 15:13 N 3 10.00 Fair CLR 71.6 44.6 38% 30.02 0.0
10 14:53 E 5 10.00 Fair CLR 71.6 46.4 41% 30.03 0.0
10 14:33 E 5 10.00 Fair CLR 69.8 46.4 43% 30.04 0.0
10 14:13 Calm 10.00 Partly Cloudy SCT110 69.8 46.4 43% 30.04 0.0
Date Time (cdt) Wind (mph) Vis. (mi.) Weather Sky Cond. Air Dwpt Max. Min. Relative Humidity Wind Chill (°F) Heat Index (°F) altimeter (in) sea level (mb) 1 hr 3 hr 6 hr
6 hour
Temperature (ºF) Pressure Precipitation (in)